Atlantic - Newfoundland: Past 24 Hour Conditions

 

St. John's Int'l Airport

11:30 PM NDT 01 October 2014
This table is a summary of hourly weather conditions for the past 24 hours.
Date / Time
(NDT)
Wind(knots) Conditions Visibility(km) Pressure(kPa) Air tempC) Relative humidity(%) Dew pointC)
01 October 2014
23:30 NE 10 Clear 24 102.5 5 79 1
22:30 NE 7 Clear 24 102.6 5 79 2
21:30 NE 11 gust 16 Mainly Clear 24 102.5 6 81 3
20:30 NE 11 gust 19 Mainly Clear 24 102.4 6 80 3
19:30 NE 12 Partly Cloudy 24 102.4 7 82 4
18:30 NE 11 gust 17 Mostly Cloudy 24 102.3 8 83 5
17:30 NE 12 Partly Cloudy 24 102.1 9 77 5
16:30 NNE 8 Partly Cloudy 24 102.1 11 72 6
15:30 NE 9 Partly Cloudy 24 102.0 11 75 7
14:30 NNE 10 Mostly Cloudy 24 102.0 11 81 8
13:30 NNW 10 Mostly Cloudy 24 101.9 12 75 7
12:30 NNW 8 Mostly Cloudy 24 101.9 12 77 8
11:30 NNW 10 Mostly Cloudy 24 101.9 12 79 8
10:30 NW 13 gust 19 Mostly Cloudy 24 101.9 11 82 9
9:30 NW 11 gust 16 Partly Cloudy 24 101.8 11 92 9
8:30 WNW 12 Partly Cloudy 24 101.7 10 95 9
7:30 WNW 13 Mainly Sunny 24 101.7 9 98 9
6:30 WNW 12 Mainly Clear 24 101.7 9 98 9
5:30 W 9 Partly Cloudy 24 101.6 10 99 10
4:30 W 8 Mist 6 101.6 10 99 10
3:30 WNW 9 Light Drizzle 3 101.6 11 99 11
2:30 WNW 7 Light Drizzle 6 101.6 11 99 11
1:30 W 7 Light Drizzle 6 101.6 12 98 12
0:30 SSW 11 gust 20 Light Drizzle 6 101.7 12 99 12
30 September 2014
23:30 S 13 Light Drizzle 6 101.7 11 99 11
 
Map of Atlantic - Newfoundland marine weather areas Southwestern Grand Banks - 44138 Banquereau - 44139 Tail of the Bank - 44140 Nickerson Bank - 44251 Northeast Burgeo Bank - 44255 Blanc-Sablon Airport Cap Whittle Chevery Natashquan Airport Heath Point Miscou Island Grand Étang Ingonish Beach North Mountain St.Paul Island J.A. Douglas McCurdy Sydney Airport Charlottetown Airport East Point North Cape Argentia Bonavista Burgeo Cape Race Corner Brook Daniel's Harbour Englee Ferolle Point La Scie Port aux Basques Rocky Harbour Sagona Island St. Anthony Airport St. John's Int'l Airport St. Lawrence Stephenville Airport Twillingate Winterland Wreckhouse Cartwright Airport Mary's Harbour Grates Cove Pool's Island Marticot Island Long Pond Îles de la Madeleine Airport
Legend: buoyBuoy land stationLand Station